15min,AgWx,beryljct,423,15MAR2019:00:00:00,25.7,12.86,25.9,26.9,26.3,27.5,25.5,82,84,78,0.389,21.6,22.3,21.0,4.034,4.3,300,13,5.5,-0.00004,-0.00004,.,38.5,27,0,0,35.8,12.63,0.00,0.00
15min,AgWx,beryljct,423,15MAR2019:00:15:00,25.6,12.85,26.2,25.7,25.4,26.7,24.3,82,86,78,0.392,20.7,21.7,19.7,2.784,3.1,323,13,4.8,-0.00007,-0.00008,.,38.4,26,0,0,35.5,12.63,0.00,0.00
15min,AgWx,beryljct,423,15MAR2019:00:30:00,25.3,12.83,26.9,26.2,26.3,26.7,25.6,81,83,78,0.388,21.1,21.7,20.1,2.806,2.7,313,5.3,3.4,-0.00008,-0.00009,.,38.4,26,0,0,35.6,12.63,0.00,0.00
15min,AgWx,beryljct,423,15MAR2019:00:45:00,24.9,12.82,26.5,25.8,25.4,26.3,24.2,82,85,79,0.391,20.6,21.5,19.3,2.061,2.3,309,12,2.9,-0.00009,-0.00011,.,38.4,26,0,0,35.4,12.63,0.00,0.00
15min,AgWx,beryljct,423,15MAR2019:01:00:00,24.5,12.81,25.9,24.5,25.1,25.9,24.4,83,85,81,0.380,20.6,21.3,19.7,0.965,1.0,187,47,2.5,-0.00015,-0.00020,.,38.4,26,0,0,35.6,12.63,0.00,0.00
15min,AgWx,beryljct,423,15MAR2019:01:15:00,24.2,12.8,25.9,25.7,25.4,26.0,24.6,83,85,81,0.388,21.0,21.7,20.5,1.359,1.1,109,70,2.4,-0.00014,-0.00019,.,38.4,26,0,0,35.5,12.63,0.00,0.00
15min,AgWx,beryljct,423,15MAR2019:01:30:00,24.1,12.78,20.4,21.1,24.8,25.8,21.1,82,83,81,0.319,20.2,21.2,16.5,2.28,2.9,1.4,17,4.1,-0.00008,-0.00009,.,38.3,26,0,0,35.4,12.63,0.00,0.00
15min,AgWx,beryljct,423,15MAR2019:01:45:00,23.7,12.76,25.3,24.1,22.2,24.1,20.7,88,90,82,0.387,19.1,21.1,16.4,2.674,2.8,287,17,3.4,-0.00008,-0.00010,.,38.3,26,0,0,35.8,12.63,0.00,0.00
15min,AgWx,beryljct,423,15MAR2019:02:00:00,23.6,12.77,26.5,25.6,25.3,26.1,24.1,85,88,82,0.384,21.3,21.8,20.7,1.096,1.5,249,7.5,3.5,-0.00013,-0.00016,.,38.3,26,0,0,35.8,12.63,0.00,0.00
15min,AgWx,beryljct,423,15MAR2019:02:15:00,23.6,12.75,25.6,24.9,25.1,25.8,24.6,83,84,81,0.381,20.6,21.3,19.6,1.622,1.8,335,28,3.1,-0.00011,-0.00014,.,38.3,26,0,0,35.8,12.63,0.00,0.00
15min,AgWx,beryljct,423,15MAR2019:02:30:00,23.3,12.75,23.3,22.6,23.3,25.0,22.5,85,87,82,0.357,19.3,20.6,18.0,3.047,0.9,318,38,3.0,-0.00015,-0.00021,.,38.3,26,0,0,35.4,12.63,0.00,0.00
15min,AgWx,beryljct,423,15MAR2019:02:45:00,22.9,12.74,23.3,22.4,22.4,22.9,22.0,88,90,86,0.368,19.4,19.9,18.7,0,1.8,216,21,3.1,-0.00011,-0.00014,.,38.2,26,0,0,35.7,12.63,0.00,0.00
15min,AgWx,beryljct,423,15MAR2019:03:00:00,22.6,12.74,21.8,21.7,23.5,24.2,21.7,88,90,84,0.335,20.4,21.2,17.6,1.513,0.9,226,59,1.9,-0.00015,-0.00021,.,38.2,26,0,0,35.5,12.63,0.00,0.00
15min,AgWx,beryljct,423,15MAR2019:03:15:00,22.1,12.73,22.9,22.1,21.1,22.1,20.4,88,90,84,0.361,18.1,19.5,17.1,0.921,0.3,350,0.0,1.6,-0.00017,-0.00026,.,38.2,26,0,0,35.5,12.63,0.00,0.00
15min,AgWx,beryljct,423,15MAR2019:03:30:00,21.7,12.71,23.3,22.5,22.0,22.5,21.7,88,89,88,0.365,19.1,19.6,18.7,3.025,1.4,339,17,3.1,-0.00012,-0.00016,.,38.2,25,0,0,35.3,12.63,0.00,0.00
15min,AgWx,beryljct,423,15MAR2019:03:45:00,21.7,12.7,24.0,23.3,23.0,23.4,22.5,85,88,84,0.357,19.3,19.6,19.0,0.702,1.5,314,2.8,3.2,-0.00012,-0.00016,.,38.1,26,0,0,35.7,12.63,0.00,0.00
15min,AgWx,beryljct,423,15MAR2019:04:00:00,21.6,12.68,23.2,23.1,23.3,23.5,23.0,83,84,83,0.352,19.0,19.2,18.5,2.455,1.8,314,4.0,3.0,-0.00011,-0.00014,.,38.1,26,0,0,35.5,12.63,0.00,0.00
15min,AgWx,beryljct,423,15MAR2019:04:15:00,21.7,12.69,22.9,22.2,22.4,23.0,21.9,84,85,83,0.348,18.3,19.0,17.8,2.17,2.8,320,11,3.7,-0.00008,-0.00009,.,38.1,26,0,0,35.6,12.63,0.00,0.00
15min,AgWx,beryljct,423,15MAR2019:04:30:00,21.6,12.67,23.5,23.0,22.5,23.0,22.0,85,86,85,0.358,18.8,19.3,18.2,2.828,2.6,329,18,3.8,-0.00008,-0.00010,.,38.1,26,0,0,35.6,12.63,0.00,0.00
15min,AgWx,beryljct,423,15MAR2019:04:45:00,21.8,12.66,22.5,21.9,22.3,23.0,21.9,86,87,85,0.346,18.7,19.2,18.2,3.573,3.9,312,10,5.0,-0.00006,-0.00006,.,38.1,26,0,0,35.7,12.63,0.00,0.00
15min,AgWx,beryljct,423,15MAR2019:05:00:00,21.8,12.66,22.4,21.7,21.8,22.1,21.6,87,87,86,0.345,18.4,18.7,18.1,4.384,3.6,314,6.3,4.5,-0.00006,-0.00007,.,38.0,25,0,0,35.7,12.64,0.00,0.00
15min,AgWx,beryljct,423,15MAR2019:05:15:00,21.8,12.66,22.5,21.5,21.7,22.2,21.3,87,87,86,0.343,18.4,19.0,17.8,2.74,3.3,307,6.0,4.9,-0.00007,-0.00008,.,38.0,26,0,0,35.6,12.63,0.00,0.00
15min,AgWx,beryljct,423,15MAR2019:05:30:00,21.6,12.66,22.3,22.1,22.4,22.7,21.5,86,88,85,0.343,18.8,19.5,18.2,3.332,3.4,318,5.4,4.2,-0.00007,-0.00007,.,37.9,26,0,0,35.4,12.63,0.00,0.00
15min,AgWx,beryljct,423,15MAR2019:05:45:00,21.5,12.65,22.3,21.4,21.7,22.3,21.3,86,86,85,0.340,18.1,18.6,17.5,3.836,3.8,319,3.4,4.5,-0.00006,-0.00006,.,37.9,26,0,0,35.6,12.63,0.00,0.00
15min,AgWx,beryljct,423,15MAR2019:06:00:00,21.3,12.64,21.8,21.1,21.2,21.7,20.8,86,87,85,0.334,17.7,18.2,17.1,3.398,3.7,317,3.5,4.1,-0.00006,-0.00006,.,37.9,26,0,0,35.5,12.63,0.00,0.00
15min,AgWx,beryljct,423,15MAR2019:06:15:00,21.1,12.64,22.2,22.0,21.7,22.1,21.0,85,86,83,0.336,17.8,18.1,17.3,2.674,3.1,319,7.8,3.7,0.00006,0.00010,.,37.9,26,0,0,35.9,12.64,0.01,0.00
15min,AgWx,beryljct,423,15MAR2019:06:30:00,20.9,12.65,22.5,22.0,21.9,22.3,21.5,83,83,82,0.335,17.4,17.9,17.0,2.192,2.4,337,7.4,3.3,0.00006,0.00010,.,37.9,26,0,0,35.4,12.64,0.00,0.00
15min,AgWx,beryljct,423,15MAR2019:06:45:00,20.7,12.65,22.9,22.4,22.0,22.4,21.7,83,83,82,0.338,17.5,17.8,17.1,1.578,2.0,324,11,2.4,0.00006,0.00009,.,37.8,26,2,0,35.5,12.63,0.00,0.00
15min,AgWx,beryljct,423,15MAR2019:07:00:00,20.6,12.65,22.4,21.8,22.1,22.4,21.8,82,83,82,0.334,17.5,17.8,17.3,2.696,1.8,11,8.2,2.7,0.00009,0.00012,.,37.8,26,14,0,35.6,12.63,0.00,0.00
15min,AgWx,beryljct,423,15MAR2019:07:15:00,20.7,12.76,22.1,21.4,21.4,21.9,20.9,84,85,83,0.337,17.3,17.7,16.8,0,0.6,17,4.0,2.5,0.00021,0.00023,.,37.8,26,60,0,36.2,12.63,0.00,0.00
15min,AgWx,beryljct,423,15MAR2019:07:30:00,21.3,12.9,23.7,23.2,22.2,23.3,21.4,85,86,83,0.353,18.3,18.9,17.7,0,0.5,67,20,1.3,0.00032,0.00034,.,37.7,26,103,0,36.7,12.63,0.00,0.00
15min,AgWx,beryljct,423,15MAR2019:07:45:00,22.5,13.01,24.8,24.1,23.9,24.5,23.1,82,83,81,0.356,19.1,19.9,18.4,0,0.1,77,0.3,0.8,0.00046,0.00049,.,37.7,26,149,0,43.7,12.63,0.00,0.00
15min,AgWx,beryljct,423,15MAR2019:08:00:00,24.4,13.28,25.7,25.2,24.6,25.3,24.1,80,81,79,0.373,19.4,20.4,18.7,0,0.6,355,34,2.3,0.00062,0.00067,.,37.7,26,198,0,47.0,12.63,0.00,0.00
15min,AgWx,beryljct,423,15MAR2019:08:15:00,26.6,13.67,27.3,26.7,25.8,26.8,25.2,80,81,79,0.389,20.6,21.4,19.9,2.346,0.8,2.3,22,2.7,0.00079,0.00086,.,37.7,26,250,0,50.6,12.63,0.00,0.00
15min,AgWx,beryljct,423,15MAR2019:08:30:00,28.8,14.28,28.3,27.6,27.0,27.7,26.5,78,79,77,0.400,21.1,22.0,20.3,1.688,1.5,45,18,4.1,0.00098,0.00108,.,37.6,26,305,0,52.3,12.63,0.00,0.00
15min,AgWx,beryljct,423,15MAR2019:08:45:00,30.6,14.78,29.1,28.8,28.1,29.2,27.6,77,79,76,0.417,21.9,23.5,21.2,3.573,3.0,43,19,5.0,0.00115,0.00129,.,37.6,26,359,0,51.2,12.63,0.00,0.00
15min,AgWx,beryljct,423,15MAR2019:09:00:00,31.9,14.73,29.9,29.5,29.2,29.9,28.7,75,77,72,0.401,22.4,23.1,21.6,4.582,5.0,57,16,7.5,0.00130,0.00149,.,37.6,26,408,0,49.4,12.63,0.00,0.00
15min,AgWx,beryljct,423,15MAR2019:09:15:00,33.0,14.76,31.3,31.0,30.0,31.0,29.6,72,75,71,0.438,22.2,23.9,21.3,5.108,5.5,64,15,8.8,0.00150,0.00173,.,37.6,28,466,0,50.6,12.63,0.00,0.00
15min,AgWx,beryljct,423,15MAR2019:09:30:00,33.9,14.76,31.4,30.5,30.7,31.2,30.2,70,75,66,0.393,22.0,24.1,20.7,3.88,5.5,64,14,8.6,0.00157,0.00182,.,37.5,27,466,0,50.7,12.63,0.00,0.00
15min,AgWx,beryljct,423,15MAR2019:09:45:00,34.6,14.71,33.1,31.5,31.3,31.7,30.5,68,72,65,0.407,21.9,23.5,20.7,5.108,6.1,58,17,8.3,0.00165,0.00194,.,37.5,26,487,0,49.7,12.63,0.00,0.00
15min,AgWx,beryljct,423,15MAR2019:10:00:00,35.5,14.75,32.5,32.4,31.9,32.4,31.4,67,71,64,0.399,22.3,24.0,21.1,10.85,6.7,56,18,10.9,0.00190,0.00221,.,37.5,27,568,0,51.4,12.63,0.00,0.00
15min,AgWx,beryljct,423,15MAR2019:10:15:00,36.5,14.64,33.0,33.5,32.9,33.7,32.3,63,67,62,0.413,21.9,23.9,21.0,7.607,8.6,60,13,12.1,0.00209,0.00249,.,37.4,26,628,0,51.8,12.63,0.00,0.00
15min,AgWx,beryljct,423,15MAR2019:10:30:00,37.7,14.64,35.6,34.6,34.2,34.9,33.0,61,65,58,0.420,22.3,23.6,20.9,10.19,8.4,57,17,12.2,0.00234,0.00278,.,37.4,26,682,0,54.3,12.63,0.00,0.00
15min,AgWx,beryljct,423,15MAR2019:10:45:00,38.7,14.62,35.8,35.0,35.0,35.6,34.3,59,63,57,0.409,22.2,23.7,21.2,8.07,9.7,57,15,13.7,0.00241,0.00290,.,37.4,27,692,0,53.6,12.63,0.00,0.00
15min,AgWx,beryljct,423,15MAR2019:11:00:00,39.5,14.61,36.0,35.6,35.5,36.1,35.0,57,61,54,0.391,21.8,23.4,20.5,13.33,11.0,59,15,17.1,0.00237,0.00292,.,37.4,26,666,0,52.1,12.62,0.00,0.00
15min,AgWx,beryljct,423,15MAR2019:11:15:00,40.0,14.21,35.9,35.7,36.1,36.7,35.3,56,59,53,0.375,22.1,23.6,20.2,10.9,11.9,65,12,16.6,0.00250,0.00309,.,37.4,26,705,0,52.4,12.63,0.00,0.00
15min,AgWx,beryljct,423,15MAR2019:11:30:00,40.4,14.16,37.1,36.1,36.3,37.2,35.6,58,63,53,0.411,22.9,25.6,20.3,9.29,11.7,55,13,15.9,0.00253,0.00311,.,37.4,26,716,0,52.5,12.63,0.00,0.00
15min,AgWx,beryljct,423,15MAR2019:11:45:00,41.1,14.18,36.9,37.3,37.0,37.6,36.0,57,60,54,0.435,23.3,24.7,21.7,10.79,11.9,56,14,16.4,0.00269,0.00330,.,37.3,27,761,0,53.4,12.62,0.00,0.00
15min,AgWx,beryljct,423,15MAR2019:12:00:00,41.6,14.2,38.0,37.7,37.5,38.2,36.9,56,59,52,0.414,23.1,25.1,21.4,12.78,11.4,62,12,16.2,0.00255,0.00315,.,37.3,26,679,0,52.1,12.62,0.00,0.00
15min,AgWx,beryljct,423,15MAR2019:12:15:00,42.0,14.16,37.7,38.2,38.1,39.0,37.3,55,57,51,0.415,23.2,25.3,21.2,12.41,12.6,58,12,16.1,0.00268,0.00334,.,37.3,26,718,0,52.2,12.62,0.00,0.00
15min,AgWx,beryljct,423,15MAR2019:12:30:00,42.5,14.12,40.2,38.6,38.7,39.6,38.0,55,59,51,0.422,23.9,26.5,22.0,7.914,11.9,54,14,17.6,0.00281,0.00347,.,37.3,26,754,0,53.5,12.62,0.00,0.00
15min,AgWx,beryljct,423,15MAR2019:12:45:00,43.2,14.15,39.0,38.8,39.6,40.6,38.7,55,58,51,0.405,24.7,26.5,22.1,9.76,12.1,52,15,17.7,0.00289,0.00357,.,37.2,26,759,0,54.2,12.62,0.00,0.00
15min,AgWx,beryljct,423,15MAR2019:13:00:00,43.9,14.1,43.3,40.2,40.0,41.0,38.8,53,57,51,0.458,24.4,26.6,22.3,9.34,11.2,47,11,17.1,0.00302,0.00370,.,37.2,26,789,0,55.0,12.61,0.00,0.00
15min,AgWx,beryljct,423,15MAR2019:13:15:00,44.8,14.07,40.4,41.2,40.7,41.8,39.8,53,59,50,0.450,25.0,28.0,23.0,13.59,11.5,43,16,16.1,0.00307,0.00377,.,37.2,26,789,0,55.5,12.61,0.00,0.00
15min,AgWx,beryljct,423,15MAR2019:13:30:00,45.6,14.11,43.7,41.7,41.4,42.0,41.0,52,57,48,0.464,25.0,27.3,22.8,12.69,13.2,49,11,17.0,0.00318,0.00397,.,37.2,26,815,0,54.9,12.61,0.00,0.00
15min,AgWx,beryljct,423,15MAR2019:13:45:00,46.4,14.05,43.7,42.3,42.1,43.0,41.3,50,56,44,0.448,24.6,28.1,21.6,14.97,13.4,61,11,20.9,0.00331,0.00415,.,37.2,25,826,0,55.1,12.61,0.00,0.00
15min,AgWx,beryljct,423,15MAR2019:14:00:00,46.9,14.06,42.7,42.6,42.3,43.2,41.6,48,51,43,0.433,23.8,26.2,21.1,14.67,13.2,54,12,19.8,0.00314,0.00399,.,37.2,26,757,0,54.1,12.61,0.00,0.00
15min,AgWx,beryljct,423,15MAR2019:14:15:00,47.1,14.09,43.5,42.4,42.2,42.7,41.7,48,52,44,0.438,23.8,26.3,21.7,12.08,12.9,61,13,18.6,0.00273,0.00355,.,37.1,26,630,0,52.0,12.61,0.00,0.00
15min,AgWx,beryljct,423,15MAR2019:14:30:00,46.9,14.06,43.8,42.5,42.4,42.9,41.9,48,53,42,0.445,24.0,27.1,20.4,10.02,13.1,63,12,16.7,0.00245,0.00326,.,37.2,26,535,0,50.3,12.61,0.00,0.00
15min,AgWx,beryljct,423,15MAR2019:14:45:00,46.9,14.04,42.6,42.8,42.7,43.1,42.5,47,50,45,0.435,24.1,25.3,22.6,12.43,12.9,69,9.7,18.1,0.00258,0.00340,.,37.2,26,579,0,51.0,12.61,0.00,0.00
15min,AgWx,beryljct,423,15MAR2019:15:00:00,47.0,14.03,43.3,43.0,43.1,43.8,42.6,47,50,42,0.420,24.1,26.3,21.4,10.94,12.0,56,11,17.8,0.00239,0.00319,.,37.2,26,515,0,50.8,12.61,0.00,0.00
15min,AgWx,beryljct,423,15MAR2019:15:15:00,47.2,14.03,42.8,43.1,43.1,43.5,42.9,47,50,44,0.438,24.4,26.3,22.7,12.91,12.3,57,12,18.4,0.00236,0.00316,.,37.2,26,509,0,50.6,12.61,0.00,0.00
15min,AgWx,beryljct,423,15MAR2019:15:30:00,47.3,14.01,44.5,43.8,43.4,44.0,42.8,48,53,45,0.479,25.2,27.9,23.0,9.47,12.5,50,11,18.4,0.00218,0.00297,.,37.2,26,457,0,50.2,12.61,0.00,0.00
15min,AgWx,beryljct,423,15MAR2019:15:45:00,47.3,14.06,44.2,44.1,43.5,44.1,43.2,47,50,44,0.488,24.6,26.5,23.1,15.61,13.9,59,12,18.7,0.00211,0.00296,.,37.2,26,423,0,49.1,12.61,0.00,0.00
15min,AgWx,beryljct,423,15MAR2019:16:00:00,47.2,14.07,44.1,43.8,43.6,44.1,43.2,47,50,45,0.456,24.8,26.6,23.7,14.8,13.9,49,8.3,18.8,0.00190,0.00274,.,37.3,26,356,0,48.4,12.60,0.00,0.00
15min,AgWx,beryljct,423,15MAR2019:16:15:00,47.0,14.12,44.1,43.7,43.8,44.1,43.4,46,49,43,0.429,24.4,26.2,22.4,10.79,13.1,57,10,18.7,0.00185,0.00268,.,37.3,26,341,0,48.0,12.60,0.00,0.00
15min,AgWx,beryljct,423,15MAR2019:16:30:00,47.1,14.04,44.0,43.9,44.0,44.3,43.7,45,48,43,0.438,23.9,25.6,22.7,12.96,13.3,53,11,17.2,0.00193,0.00279,.,37.4,26,354,0,48.0,12.60,0.00,0.00
15min,AgWx,beryljct,423,15MAR2019:16:45:00,47.1,14.11,43.8,43.5,43.9,44.1,43.5,45,47,43,0.435,24.0,25.1,23.0,11.51,13.9,50,9.8,17.3,0.00181,0.00268,.,37.4,26,317,0,47.3,12.61,0.01,0.00
15min,AgWx,beryljct,423,15MAR2019:17:00:00,46.9,14.08,43.8,43.5,43.6,43.9,43.5,44,47,41,0.403,23.3,24.6,21.6,15.37,13.1,49,9.4,17.7,0.00167,0.00251,.,37.4,26,285,0,46.6,12.60,0.00,0.00
15min,AgWx,beryljct,423,15MAR2019:17:15:00,46.7,14.04,43.9,43.5,43.3,43.5,43.1,44,46,42,0.416,22.8,23.7,21.9,13.15,13.9,46,9.1,17.7,0.00160,0.00246,.,37.5,26,253,0,45.9,12.60,0.00,0.00
15min,AgWx,beryljct,423,15MAR2019:17:30:00,46.5,14.08,43.3,42.9,43.3,43.6,42.8,45,48,43,0.418,23.4,25.0,22.1,11.84,12.5,51,10,17.0,0.00145,0.00224,.,37.5,26,230,0,45.8,12.60,0.00,0.00
15min,AgWx,beryljct,423,15MAR2019:17:45:00,46.1,14.06,42.5,42.4,42.7,43.0,42.4,45,48,43,0.440,22.9,24.0,21.9,8.68,11.9,55,7.8,16.0,0.00055,0.00063,.,37.6,26,187,0,44.7,12.60,0.00,0.00
15min,AgWx,beryljct,423,15MAR2019:18:00:00,45.5,14.08,42.4,42.0,42.2,42.4,41.9,47,49,45,0.426,23.2,24.3,22.2,10.02,10.8,55,9.0,13.9,0.00049,0.00057,.,37.7,26,156,0,43.9,12.60,0.00,0.00
15min,AgWx,beryljct,423,15MAR2019:18:15:00,44.8,13.35,41.3,40.8,41.4,42.0,40.8,48,50,45,0.426,23.1,24.0,21.7,11.16,10.4,60,8.2,16.3,0.00040,0.00048,.,37.7,26,97,0,42.1,12.60,0.00,0.00
15min,AgWx,beryljct,423,15MAR2019:18:30:00,43.4,13.19,39.1,39.3,40.0,40.8,39.3,51,53,48,0.434,23.3,23.9,22.3,9.65,10.7,66,7.3,14.3,0.00032,0.00038,.,37.7,26,41,0,40.0,12.61,0.01,0.00
15min,AgWx,beryljct,423,15MAR2019:18:45:00,41.8,13.14,38.5,38.6,38.9,39.3,38.4,54,55,53,0.424,23.5,24.0,23.0,9.69,10.8,72,6.8,14.8,0.00026,0.00031,.,37.8,26,11,0,38.5,12.61,0.00,0.00
15min,AgWx,beryljct,423,15MAR2019:19:00:00,40.5,13.1,38.5,38.1,38.2,38.6,37.9,54,55,52,0.417,23.0,23.3,22.6,10.13,10.6,74,6.7,13.8,0.00024,0.00029,.,37.8,26,3,0,37.7,12.61,0.00,0.00
15min,AgWx,beryljct,423,15MAR2019:19:15:00,39.4,13.09,37.5,37.0,37.6,38.1,37.0,55,57,54,0.422,22.9,23.2,22.6,8.18,9.2,72,7.1,12.7,0.00020,0.00025,.,37.9,25,0,0,36.9,12.61,0.00,0.00
15min,AgWx,beryljct,423,15MAR2019:19:30:00,38.2,13.07,36.0,35.4,36.3,37.0,35.4,59,61,56,0.424,23.2,23.5,23.0,5.853,6.8,72,6.6,10.3,0.00012,0.00016,.,37.9,26,0,0,35.4,12.61,0.00,0.00
15min,AgWx,beryljct,423,15MAR2019:19:45:00,37.2,13.06,35.6,35.0,35.3,35.6,35.0,60,61,59,0.409,22.7,23.2,22.3,6.818,6.7,75,7.4,9.1,0.00011,0.00015,.,37.9,26,0,0,35.7,12.61,0.00,0.00
15min,AgWx,beryljct,423,15MAR2019:20:00:00,36.3,12.91,33.9,34.1,34.6,35.0,34.1,59,60,58,0.400,21.8,22.3,21.4,7.804,8.4,76,6.7,10.6,0.00015,0.00018,.,38.0,26,0,0,35.3,12.61,0.00,0.00
15min,AgWx,beryljct,423,15MAR2019:20:15:00,35.7,13.02,34.3,33.9,33.9,34.1,33.7,60,61,60,0.398,21.6,21.8,21.5,11.14,10.5,71,6.4,13.9,0.00017,0.00020,.,38.0,26,0,0,35.6,12.61,0.00,0.00
15min,AgWx,beryljct,423,15MAR2019:20:30:00,35.1,13.01,33.6,33.3,33.6,33.9,33.2,62,63,60,0.405,21.8,22.1,21.6,8.24,9.7,67,5.5,11.6,0.00015,0.00018,.,38.1,26,0,0,35.5,12.61,0.00,0.00
15min,AgWx,beryljct,423,15MAR2019:20:45:00,34.6,13,33.8,33.2,33.2,33.4,33.0,63,64,63,0.413,22.1,22.5,21.9,8.29,8.0,62,5.6,10.2,0.00011,0.00014,.,38.1,26,0,0,35.5,12.61,0.00,0.00
15min,AgWx,beryljct,423,15MAR2019:21:00:00,34.0,12.98,32.7,32.3,32.7,33.2,32.3,68,71,64,0.438,23.3,24.0,22.4,5.502,6.4,59,6.5,9.1,0.00006,0.00008,.,38.1,26,0,0,35.6,12.62,0.00,0.00
15min,AgWx,beryljct,423,15MAR2019:21:15:00,33.4,12.97,32.7,32.3,32.3,32.5,32.1,72,72,71,0.442,24.1,24.3,23.9,4.428,4.9,59,6.0,6.0,0.00001,0.00002,.,38.1,26,0,0,35.6,12.62,0.00,0.00
15min,AgWx,beryljct,423,15MAR2019:21:30:00,32.8,12.96,33.0,32.3,32.2,32.5,32.0,70,71,70,0.432,23.7,24.1,23.4,2.609,4.0,69,6.7,6.2,-0.00001,-0.00000,.,38.1,26,0,0,35.8,12.62,0.00,0.00
15min,AgWx,beryljct,423,15MAR2019:21:45:00,32.1,12.96,32.8,32.2,32.4,32.6,32.1,70,72,69,0.443,23.8,24.2,23.5,1.929,2.0,73,11,3.2,-0.00010,-0.00012,.,38.1,26,0,0,35.6,12.62,0.00,0.00
15min,AgWx,beryljct,423,15MAR2019:22:00:00,31.5,12.97,32.2,32.1,31.9,32.2,31.8,73,73,72,0.445,24.2,24.4,23.9,1.688,1.5,34,17,2.8,-0.00013,-0.00016,.,38.1,26,0,0,35.3,12.62,0.00,0.00
15min,AgWx,beryljct,423,15MAR2019:22:15:00,31.0,12.95,32.9,32.2,32.2,32.5,31.9,73,73,73,0.449,24.5,24.8,24.2,1.052,1.7,7.8,12,2.4,-0.00012,-0.00015,.,38.2,26,0,0,35.7,12.62,0.00,0.00
15min,AgWx,beryljct,423,15MAR2019:22:30:00,30.5,12.95,32.7,32.0,32.0,32.4,31.5,74,75,73,0.453,24.6,24.8,24.3,1.162,0.5,46,33,1.4,-0.00020,-0.00029,.,38.1,25,0,0,35.4,12.62,0.00,0.00
15min,AgWx,beryljct,423,15MAR2019:22:45:00,30.1,12.94,32.5,31.8,32.1,32.5,31.5,74,76,73,0.456,24.8,25.0,24.3,0.723,0.6,110,1.0,2.0,-0.00019,-0.00028,.,38.1,26,0,0,35.4,12.62,0.00,0.00
15min,AgWx,beryljct,423,15MAR2019:23:00:00,29.8,12.93,33.6,32.4,32.4,32.9,31.8,74,75,72,0.450,25.0,25.3,24.5,2.806,1.0,41,33,3.7,-0.00017,-0.00024,.,38.1,26,0,0,35.8,12.62,0.00,0.00
15min,AgWx,beryljct,423,15MAR2019:23:15:00,29.6,12.8,31.1,31.2,32.0,32.7,31.2,74,75,72,0.441,24.5,25.0,24.1,0,0.8,50,2.0,3.9,-0.00017,-0.00024,.,38.1,26,0,0,35.4,12.62,0.00,0.00
15min,AgWx,beryljct,423,15MAR2019:23:30:00,29.3,12.9,32.2,31.9,31.5,32.0,30.9,75,76,73,0.449,24.4,24.8,23.9,0.438,0.4,88,12,1.5,-0.00021,-0.00031,.,38.1,27,0,0,35.1,12.63,0.00,0.00
15min,AgWx,bigpiney,439,15MAR2019:00:00:00,12.6,12.75,7.7,7.5,8.1,9.0,7.4,78,79,75,0.170,2.6,3.5,1.7,4.516,3.3,192,26,5.0,-0.00003,-0.00003,30.6,30.9,9,0,0,0.0,0.32,0.00,0.00
15min,AgWx,bigpiney,439,15MAR2019:00:15:00,12.1,12.74,6.9,6.3,7.1,8.9,6.2,79,81,77,0.163,2.0,3.7,1.3,4.757,4.5,211,7.1,6.1,-0.00002,-0.00002,30.6,30.9,9,0,0,0.0,0.32,0.00,0.00
15min,AgWx,bigpiney,439,15MAR2019:00:30:00,11.5,12.73,6.7,6.5,6.3,6.6,6.0,80,80,80,0.164,1.5,1.8,1.2,3.924,4.2,226,13,6.4,-0.00002,-0.00002,30.6,30.8,9,0,0,0.0,0.32,0.00,0.00
15min,AgWx,bigpiney,439,15MAR2019:00:45:00,11.0,12.72,6.9,6.8,6.0,6.8,5.5,80,82,79,0.166,1.3,2.3,0.6,2.477,1.4,236,9.8,3.9,-0.00007,-0.00009,30.6,30.9,9,0,0,0.0,0.32,0.00,0.00
15min,AgWx,bigpiney,439,15MAR2019:01:00:00,10.4,12.7,6.0,5.7,7.8,9.4,5.7,77,81,74,0.149,1.9,3.0,-0.3,2.477,1.2,259,67,3.7,-0.00008,-0.00010,30.6,30.9,9,0,0,0.0,0.32,0.00,0.00
15min,AgWx,bigpiney,439,15MAR2019:01:15:00,10.0,12.7,8.6,8.0,7.4,9.1,5.6,77,81,73,0.160,1.6,3.1,-0.3,4.165,2.2,245,27,4.6,-0.00005,-0.00006,30.6,30.9,9,0,0,0.0,0.32,0.00,0.00
15min,AgWx,bigpiney,439,15MAR2019:01:30:00,9.7,12.69,5.3,5.5,6.8,8.0,5.5,74,75,72,0.146,0.2,1.1,-0.8,2.959,3.6,220,10,5.0,-0.00002,-0.00002,30.6,30.9,9,0,0,0.0,0.32,0.00,0.00
15min,AgWx,bigpiney,439,15MAR2019:01:45:00,9.5,12.67,4.1,3.7,4.6,5.4,3.7,77,78,75,0.139,-1.1,-0.6,-1.9,3.266,3.7,213,5.0,5.5,-0.00002,-0.00002,30.6,30.9,9,0,0,0.0,0.32,0.00,0.00
15min,AgWx,bigpiney,439,15MAR2019:02:00:00,8.9,12.66,3.5,3.3,3.6,3.8,3.3,79,80,77,0.139,-1.6,-1.1,-2.0,3.135,2.9,219,8.3,4.1,-0.00003,-0.00004,30.6,30.9,9,0,0,0.0,0.32,0.00,0.00
15min,AgWx,bigpiney,439,15MAR2019:02:15:00,8.5,12.65,4.8,3.7,3.5,3.9,3.1,80,80,79,0.143,-1.3,-0.8,-1.9,1.469,2.9,223,7.2,4.1,-0.00003,-0.00004,30.6,30.9,9,0,0,0.0,0.32,0.00,0.00
15min,AgWx,bigpiney,439,15MAR2019:02:30:00,8.0,12.64,3.1,3.0,3.8,4.5,3.0,79,80,78,0.136,-1.3,-0.7,-2.3,3.968,2.1,228,16,4.1,-0.00005,-0.00006,30.6,30.9,9,0,0,0.0,0.32,0.00,0.00
15min,AgWx,bigpiney,439,15MAR2019:02:45:00,7.6,12.64,2.9,2.1,1.8,2.9,1.1,79,81,78,0.135,-3.1,-2.4,-3.8,2.959,3.2,210,10,4.4,-0.00003,-0.00003,30.6,30.9,9,0,0,0.0,0.32,0.00,0.00
15min,AgWx,bigpiney,439,15MAR2019:03:00:00,7.1,12.63,5.3,4.2,3.0,4.2,2.1,80,81,78,0.144,-1.7,-1.0,-2.5,3.135,3.0,231,12,4.0,-0.00003,-0.00004,30.6,30.9,9,0,0,0.0,0.32,0.00,0.00
15min,AgWx,bigpiney,439,15MAR2019:03:15:00,6.9,12.62,4.1,3.8,4.3,5.0,3.8,76,78,75,0.139,-1.5,-0.8,-2.2,4.626,4.7,234,7.5,6.7,-0.00001,-0.00001,30.6,30.9,9,0,0,0.0,0.32,0.00,0.00
15min,AgWx,bigpiney,439,15MAR2019:03:30:00,6.9,12.61,8.1,7.5,6.0,7.5,3.8,74,77,70,0.149,-0.5,0.6,-2.1,1.14,2.8,230,70,7.1,-0.00003,-0.00003,30.6,30.9,9,0,0,0.0,0.32,0.00,0.00
15min,AgWx,bigpiney,439,15MAR2019:03:45:00,7.1,12.61,4.5,3.3,4.5,8.4,2.9,72,75,68,0.133,-2.6,0.3,-3.4,4.056,4.3,193,11,6.8,-0.00001,-0.00000,30.6,30.9,9,0,0,0.0,0.32,0.00,0.00
15min,AgWx,bigpiney,439,15MAR2019:04:00:00,6.9,12.59,2.8,2.5,3.0,3.8,2.3,75,76,74,0.129,-3.1,-2.4,-3.8,5.086,4.0,204,13,5.5,-0.00001,-0.00001,30.6,30.9,9,0,0,0.0,0.32,0.00,0.00
15min,AgWx,bigpiney,439,15MAR2019:04:15:00,6.6,12.58,3.5,3.3,2.8,3.4,2.3,77,78,76,0.137,-2.9,-2.0,-3.6,4.187,5.0,224,8.4,6.7,-0.00001,-0.00000,30.6,30.9,9,0,0,0.0,0.32,0.00,0.00
15min,AgWx,bigpiney,439,15MAR2019:04:30:00,6.4,12.58,2.0,1.7,2.5,3.3,1.7,77,78,76,0.126,-3.1,-2.1,-4.0,5.393,4.1,223,8.5,6.3,-0.00002,-0.00001,30.6,31.0,9,0,0,0.0,0.32,0.00,0.00
15min,AgWx,bigpiney,439,15MAR2019:04:45:00,6.1,12.56,1.8,1.2,1.2,2.2,0.5,78,81,76,0.126,-4.0,-2.3,-4.9,2.214,3.9,221,16,6.2,-0.00002,-0.00002,30.6,30.9,9,0,0,0.0,0.32,0.00,0.00
15min,AgWx,bigpiney,439,15MAR2019:05:00:00,5.7,12.56,2.1,1.9,2.2,2.6,1.3,78,80,77,0.129,-3.1,-2.3,-3.8,3.091,1.5,251,28,3.1,-0.00006,-0.00007,30.6,30.9,9,0,0,0.0,0.32,0.00,0.00
15min,AgWx,bigpiney,439,15MAR2019:05:15:00,5.4,12.56,3.2,2.5,2.2,2.7,1.8,78,79,77,0.131,-2.9,-2.4,-3.6,2.806,2.3,226,14,3.7,-0.00004,-0.00005,30.7,30.9,9,0,0,0.0,0.32,0.00,0.00
15min,AgWx,bigpiney,439,15MAR2019:05:30:00,5.2,12.55,2.8,2.2,1.8,2.6,1.5,77,78,75,0.129,-3.8,-3.0,-4.4,2.389,2.7,216,6.6,3.9,-0.00003,-0.00003,30.7,31.0,9,0,0,0.0,0.32,0.00,0.00
15min,AgWx,bigpiney,439,15MAR2019:05:45:00,5.0,12.54,2.8,2.2,2.3,2.5,2.1,76,77,75,0.127,-3.6,-3.3,-3.8,2.411,3.4,216,8.6,5.8,-0.00002,-0.00002,30.7,30.9,9,0,0,0.0,0.32,0.00,0.00
15min,AgWx,bigpiney,439,15MAR2019:06:00:00,4.9,12.54,1.3,1.2,2.0,2.6,1.2,77,79,76,0.125,-3.4,-2.5,-4.1,0.877,0.8,222,26,2.4,-0.00007,-0.00010,30.7,30.9,9,0,0,0.0,0.32,0.00,0.00
15min,AgWx,bigpiney,439,15MAR2019:06:15:00,4.6,12.52,1.5,0.9,0.9,2.1,0.3,79,81,77,0.128,-4.2,-2.8,-4.8,2.696,1.4,234,25,2.7,-0.00006,-0.00007,30.7,31.0,9,0,0,0.0,0.32,0.00,0.00
15min,AgWx,bigpiney,439,15MAR2019:06:30:00,4.3,12.55,2.9,2.1,1.6,2.3,0.9,82,83,81,0.137,-2.7,-1.7,-3.6,3.814,1.5,262,27,4.2,-0.00005,-0.00007,30.7,30.9,9,3,0,0.0,0.32,0.00,0.00
15min,AgWx,bigpiney,439,15MAR2019:06:45:00,4.2,12.66,7.3,5.9,3.1,5.9,2.2,81,82,79,0.158,-1.4,1.0,-2.1,1.535,1.3,247,11,3.3,-0.00005,-0.00006,30.7,31.0,9,21,0,0.0,0.32,0.00,0.00
15min,AgWx,bigpiney,439,15MAR2019:07:00:00,4.4,13.22,6.1,5.1,4.3,6.3,3.2,78,80,76,0.152,-1.0,0.8,-1.8,0,1.5,241,22,3.6,-0.00004,-0.00003,30.7,31.0,9,60,0,0.0,0.32,0.00,0.00
15min,AgWx,bigpiney,439,15MAR2019:07:15:00,4.9,15.02,4.6,3.4,4.9,6.1,2.8,78,81,77,0.144,-0.3,1.0,-2.2,0,0.9,32,25,2.5,0.00001,0.00002,30.7,30.8,9,92,0,0.0,0.32,0.00,0.00
15min,AgWx,bigpiney,439,15MAR2019:07:30:00,5.7,15.01,3.7,3.4,3.5,4.0,3.1,81,82,80,0.143,-1.1,-0.5,-1.8,1.973,1.8,356,16,3.7,0.00013,0.00016,30.7,31.0,9,148,0,0.0,0.32,0.00,0.00
15min,AgWx,bigpiney,439,15MAR2019:07:45:00,6.9,14.99,6.4,5.6,4.7,5.8,3.4,82,83,80,0.161,0.3,1.5,-1.3,0,0.7,0.8,19,2.6,0.00032,0.00035,30.7,31.0,9,236,0,0.0,0.32,0.00,0.00
15min,AgWx,bigpiney,439,15MAR2019:08:00:00,8.8,14.99,6.8,6.7,6.4,7.2,5.6,82,83,80,0.168,1.9,2.8,1.2,0,0.9,27,18,1.9,0.00043,0.00047,30.7,31.0,9,277,0,0.0,0.32,0.00,0.00
15min,AgWx,bigpiney,439,15MAR2019:08:15:00,10.9,15.07,7.9,7.5,7.0,7.6,6.4,82,83,81,0.176,2.6,3.3,1.8,0.175,1.5,334,23,2.7,0.00044,0.00049,30.7,31.0,9,281,0,0.0,0.32,0.00,0.00
15min,AgWx,bigpiney,439,15MAR2019:08:30:00,12.5,14.98,8.2,8.4,7.6,8.6,6.9,80,82,79,0.177,2.8,3.9,2.1,1.315,1.1,354,21,2.3,0.00042,0.00046,30.7,31.0,9,244,0,0.0,0.32,0.00,0.00
15min,AgWx,bigpiney,439,15MAR2019:08:45:00,14.0,14.68,13.5,11.5,9.7,11.5,8.3,79,80,78,0.203,4.5,6.3,3.2,0,0.8,315,37,1.8,0.00071,0.00077,30.7,31.0,9,372,0,0.0,0.32,0.00,0.00
15min,AgWx,bigpiney,439,15MAR2019:09:00:00,16.2,14.64,15.0,12.9,11.5,12.9,10.7,78,80,77,0.216,5.9,7.7,4.9,0,1.6,334,16,3.2,0.00084,0.00091,30.7,31.0,9,412,0,0.0,0.32,0.00,0.00